Location: Newark
(47.3150°N, 5.1150°E)
Time: 01:27:05
(UTC+00:00)

Envisat - Visible Passes

Search period start: 22 October 2019 00:00
Search period end: 01 November 2019 00:00
Orbit: 764 x 766 km, 98.1° (Epoch: 21 October)

Date Brightness Start Highest point End Pass type
(mag) Time Alt. Az. Time Alt. Az. Time Alt. Az.
22 Oct 6.7 05:03:56 10° ENE 05:04:54 10° E 05:05:52 10° E visible
22 Oct 3.6 17:57:24 10° S 18:02:25 60° W 18:07:28 10° NNW visible
23 Oct 3.0 17:20:37 10° SSE 17:25:39 67° ENE 17:30:43 10° N visible
23 Oct 5.8 19:01:47 10° SW 19:05:10 18° W 19:08:33 10° NW visible
24 Oct 6.1 05:27:17 10° NE 05:30:46 18° E 05:34:15 10° SE visible
24 Oct 4.6 18:23:23 10° SSW 18:28:03 36° W 18:32:44 10° NNW visible
25 Oct 3.2 17:46:04 10° S 17:51:08 75° WSW 17:56:15 10° NNW visible
26 Oct 3.1 17:09:29 10° SSE 17:14:25 54° ENE 17:19:23 10° N visible
26 Oct 5.5 18:49:53 10° SW 18:53:46 22° W 18:57:40 10° NW visible
27 Oct 6.2 05:16:33 10° NE 05:19:22 15° E 05:22:10 10° ESE visible
27 Oct 4.2 18:11:52 10° S 18:16:43 44° W 18:21:35 10° NNW visible
28 Oct 3.0 17:34:46 10° SSE 17:39:51 89° ENE 17:44:59 10° NNW visible
28 Oct 6.1 19:17:19 10° WSW 19:19:36 13° W 19:21:53 10° WNW visible
29 Oct 5.7 05:41:02 10° NE 05:45:10 25° E 05:49:17 10° SSE visible
29 Oct 3.3 16:58:25 10° SE 17:03:11 44° ENE 17:08:01 10° N visible
29 Oct 5.1 18:38:08 10° SSW 18:42:23 27° W 18:46:41 10° NW visible
30 Oct 6.4 05:06:13 10° ENE 05:07:56 12° E 05:09:40 10° ESE visible
30 Oct 3.7 18:00:25 10° S 18:05:24 55° W 18:10:25 10° NNW visible
31 Oct 2.9 17:23:33 10° SSE 17:28:36 72° ENE 17:33:41 10° N visible
31 Oct 5.9 19:05:03 10° SW 19:08:10 16° W 19:11:19 10° NW visible
